Date String (YYYY-MM-DD hh:mm:ss) UTC,Instrument flags,Ambient pressure (hPa),Sample flow (lpm),Bypass flow (lpm),Sample temperature (°C),Ambient temperature (°C),ASC tube jacket temperature (°C),LED temperature (°C),Box temperature (°C),Sample RH (%),Span deviation,Mass concentration (μg/m³),Mass concentration (μg/m³),Mass concentration (μg/m³)
DateTimeUTC,F1_M11,P_M11,Q1_M11,Q2_M11,T1_M11,T2_M11,T3_M11,T4_M11,T5_M11,U1_M11,ZSPAN_M11,X0_M11,X2_M11,X1_M11
2021-10-19 18:00:00,,0821.4,4.99,0.00,28.9,28.2,00.0,37.9,30.7,15.6,0000.0,0018.51,0005.33,0003.47
2021-10-19 18:01:00,,0821.4,5.01,0.00,28.9,28.2,00.0,37.9,30.7,15.7,0000.0,0018.07,0005.19,0003.40
2021-10-19 18:02:00,,0821.4,5.00,0.00,28.9,28.2,00.0,37.9,30.7,15.7,0000.0,0017.65,0005.08,0003.33
2021-10-19 18:03:00,,0821.4,5.00,0.00,29.0,28.2,00.0,37.9,30.7,15.6,0000.0,0017.61,0004.93,0003.28
2021-10-19 18:04:00,,0821.4,5.01,0.00,29.0,28.2,00.0,37.9,30.8,15.6,0000.0,0015.64,0004.77,0003.21
2021-10-19 18:05:00,,0821.4,4.99,0.00,29.0,28.2,00.0,37.9,30.8,15.7,0000.0,0015.65,0004.63,0003.14
2021-10-19 18:06:00,,0821.4,4.99,0.00,29.0,28.2,00.0,38.0,30.8,15.7,0000.0,0015.87,0004.50,0003.04
2021-10-19 18:07:00,,0821.4,5.00,0.00,29.0,28.2,00.0,38.0,30.8,15.8,0000.0,0015.94,0004.29,0002.91
2021-10-19 18:08:00,,0821.4,5.01,0.00,29.0,28.2,00.0,38.0,30.8,15.9,0000.0,0015.44,0004.14,0002.80
2021-10-19 18:09:00,,0821.4,4.99,0.00,29.0,28.2,00.0,38.0,30.8,15.8,0000.0,0014.61,0004.04,0002.70
2021-10-19 18:10:00,,0821.4,5.00,0.00,29.0,28.2,00.0,38.0,30.8,15.7,0000.0,0014.29,0003.96,0002.64
2021-10-19 18:11:00,,0821.4,4.99,0.00,29.0,28.3,00.0,38.0,30.8,15.9,0000.0,0014.03,0003.89,0002.57
2021-10-19 18:12:00,,0821.5,5.00,0.00,29.1,28.3,00.0,38.0,30.8,15.7,0000.0,0014.23,0003.94,0002.55
2021-10-19 18:13:00,,0821.5,5.01,0.00,29.1,28.3,00.0,38.1,30.9,15.4,0000.0,0014.39,0003.96,0002.53
2021-10-19 18:14:00,,0821.5,5.00,0.00,29.1,28.3,00.0,38.1,30.9,15.5,0000.0,0014.09,0003.96,0002.51
2021-10-19 18:15:00,,0821.4,5.01,0.00,29.1,28.3,00.0,38.1,30.9,15.7,0000.0,0014.09,0003.99,0002.50
2021-10-19 18:16:00,,0821.4,5.00,0.00,29.1,28.3,00.0,38.1,30.9,15.8,0000.0,0013.23,0003.97,0002.48
2021-10-19 18:17:00,,0821.4,5.00,0.00,29.1,28.3,00.0,38.1,30.9,15.7,0000.0,0011.80,0003.99,0002.47
2021-10-19 18:18:00,,0821.4,5.00,0.00,29.1,28.4,00.0,38.1,30.9,15.5,0000.0,0010.92,0003.99,0002.46
2021-10-19 18:19:00,,0821.4,5.00,0.00,29.1,28.4,00.0,38.1,30.9,15.2,0000.0,0010.77,0003.93,0002.42
2021-10-19 18:20:00,,0821.4,5.00,0.00,29.2,28.4,00.0,38.1,31.0,15.3,0000.0,0010.90,0003.86,0002.38
2021-10-19 18:21:00,,0821.4,4.99,0.00,29.2,28.5,00.0,38.2,31.0,15.4,0000.0,0011.02,0003.77,0002.37
2021-10-19 18:22:00,,0821.4,5.01,0.00,29.2,28.5,00.0,38.2,31.0,15.3,0000.0,0010.88,0003.75,0002.36
2021-10-19 18:23:00,,0821.4,5.00,0.00,29.2,28.5,00.0,38.2,31.0,15.2,0000.0,0010.40,0003.71,0002.35
2021-10-19 18:24:00,,0821.3,5.00,0.00,29.3,28.6,00.0,38.2,31.1,14.8,0000.0,0010.31,0003.68,0002.34
2021-10-19 18:25:00,,0821.3,4.99,0.00,29.3,28.6,00.0,38.2,31.1,14.5,0000.0,0010.49,0003.69,0002.31
2021-10-19 18:26:00,,0821.2,5.00,0.00,29.3,28.7,00.0,38.2,31.1,14.1,0000.0,0010.24,0003.67,0002.27
2021-10-19 18:27:00,,0821.2,5.01,0.00,29.3,28.7,00.0,38.3,31.2,14.2,0000.0,0010.37,0003.65,0002.23
2021-10-19 18:28:00,,0821.2,4.99,0.00,29.4,28.7,00.0,38.3,31.2,14.3,0000.0,0010.69,0003.61,0002.19
2021-10-19 18:29:00,,0821.2,5.01,0.00,29.4,28.7,00.0,38.3,31.2,14.1,0000.0,0010.83,0003.54,0002.14
2021-10-19 18:30:00,,0821.2,5.01,0.00,29.4,28.7,00.0,38.3,31.2,14.0,0000.0,0011.17,0003.50,0002.09
2021-10-19 18:31:00,,0821.2,4.99,0.00,29.4,28.8,00.0,38.4,31.3,13.9,0000.0,0010.91,0003.46,0002.03
2021-10-19 18:32:00,,0821.2,5.02,0.00,29.5,28.8,00.0,38.4,31.3,13.9,0000.0,0010.59,0003.44,0001.96
2021-10-19 18:33:00,,0821.2,5.01,0.00,29.5,28.8,00.0,38.4,31.3,14.1,0000.0,0010.49,0003.40,0001.90
2021-10-19 18:34:00,,0821.2,4.99,0.00,29.5,28.8,00.0,38.4,31.3,14.2,0000.0,0011.43,0003.36,0001.86
2021-10-19 18:35:00,,0821.2,5.01,0.00,29.5,28.8,00.0,38.4,31.3,14.1,0000.0,0012.16,0003.32,0001.81
2021-10-19 18:36:00,,0821.3,5.01,0.00,29.5,28.8,00.0,38.5,31.3,14.0,0000.0,0012.28,0003.25,0001.76
2021-10-19 18:37:00,,0821.2,5.00,0.00,29.5,28.8,00.0,38.5,31.3,13.9,0000.0,0012.69,0003.19,0001.74
2021-10-19 18:38:00,,0821.2,4.99,0.00,29.6,28.8,00.0,38.5,31.4,13.9,0000.0,0012.53,0003.19,0001.72
2021-10-19 18:39:00,,0821.2,5.00,0.00,29.6,28.9,00.0,38.5,31.4,13.9,0000.0,0012.61,0003.21,0001.71
2021-10-19 18:40:00,,0821.2,5.01,0.00,29.6,28.9,00.0,38.5,31.4,14.0,0000.0,0012.42,0003.29,0001.70
2021-10-19 18:41:00,,0821.2,4.99,0.00,29.6,28.9,00.0,38.5,31.4,14.0,0000.0,0011.66,0003.31,0001.72
2021-10-19 18:42:00,,0821.2,4.99,0.00,29.6,28.9,00.0,38.6,31.4,14.0,0000.0,0011.61,0003.34,0001.74
2021-10-19 18:43:00,,0821.1,5.01,0.00,29.6,28.9,00.0,38.6,31.4,13.9,0000.0,0011.75,0003.35,0001.75
2021-10-19 18:44:00,,0821.2,4.98,0.00,29.6,28.9,00.0,38.6,31.4,13.7,0000.0,0011.79,0003.32,0001.76
2021-10-19 18:45:00,,0821.2,4.99,0.00,29.6,28.9,00.0,38.6,31.4,13.5,0000.0,0010.94,0003.32,0001.75
2021-10-19 18:46:00,,0821.2,5.01,0.00,29.6,28.9,00.0,38.6,31.4,13.6,0000.0,0010.51,0003.32,0001.75
2021-10-19 18:47:00,,0821.2,5.00,0.00,29.7,28.9,00.0,38.6,31.4,13.8,0000.0,0009.90,0003.35,0001.77
2021-10-19 18:48:00,,0821.1,5.00,0.00,29.7,28.9,00.0,38.7,31.4,13.9,0000.0,0009.72,0003.36,0001.77
2021-10-19 18:49:00,,0821.2,4.99,0.00,29.7,28.9,00.0,38.7,31.4,13.9,0000.0,0010.43,0003.34,0001.77
2021-10-19 18:50:00,,0821.2,5.01,0.00,29.7,28.9,00.0,38.7,31.4,13.9,0000.0,0010.45,0003.31,0001.76
2021-10-19 18:51:00,,0821.2,5.00,0.00,29.7,28.8,00.0,38.7,31.5,14.1,0000.0,0010.15,0003.24,0001.76
2021-10-19 18:52:00,,0821.2,4.99,0.00,29.6,28.8,00.0,38.7,31.4,14.0,0000.0,0011.10,0003.23,0001.74
2021-10-19 18:53:00,,0821.2,5.00,0.00,29.6,28.8,00.0,38.7,31.4,14.1,0000.0,0010.83,0003.20,0001.73
2021-10-19 18:54:00,,0821.3,4.99,0.00,29.6,28.8,00.0,38.7,31.4,14.0,0000.0,0011.22,0003.20,0001.73
2021-10-19 18:55:00,,0821.3,5.00,0.00,29.7,28.8,00.0,38.7,31.4,13.9,0000.0,0011.74,0003.22,0001.74
2021-10-19 18:56:00,,0821.4,5.01,0.00,29.7,28.8,00.0,38.7,31.4,13.9,0000.0,0011.69,0003.24,0001.74
2021-10-19 18:57:00,,0821.3,5.00,0.00,29.7,28.8,00.0,38.7,31.4,13.7,0000.0,0011.25,0003.26,0001.74
2021-10-19 18:58:00,,0821.4,4.99,0.00,29.6,28.8,00.0,38.7,31.4,13.5,0000.0,0011.67,0003.28,0001.74
2021-10-19 18:59:00,,0821.3,5.01,0.00,29.6,28.8,00.0,38.7,31.4,13.8,0000.0,0011.42,0003.25,0001.72
